Time,TemperatureF,DewpointF,PressureIn,WindDirection,WindDirectionDegrees,WindSpeedMPH,WindSpeedGustMPH,Humidity,HourlyPrecipIn,Conditions,Clouds,dailyrainin,SoftwareType,DateUTC
2013-11-24 00:02:00,11.5,-4.9,17.68,NW,315,4.0,7.0,47,0.00,,,0.00,meteohub,2013-11-24 06:02:00,
2013-11-24 00:07:00,11.1,-5.3,17.67,NW,315,7.0,7.0,47,0.00,,,0.00,meteohub,2013-11-24 06:07:00,
2013-11-24 00:12:00,11.1,-5.3,17.66,NE,45,8.0,8.0,47,0.00,,,0.00,meteohub,2013-11-24 06:12:00,
2013-11-24 00:17:00,11.1,-5.3,17.65,NW,315,3.0,8.0,47,0.00,,,0.00,meteohub,2013-11-24 06:17:00,
2013-11-24 00:22:00,11.1,-5.3,17.65,NW,315,5.0,8.0,47,0.00,,,0.00,meteohub,2013-11-24 06:22:00,
2013-11-24 00:27:00,10.9,-4.9,17.65,NW,315,6.0,8.0,48,0.00,,,0.00,meteohub,2013-11-24 06:27:00,
2013-11-24 00:32:00,10.9,-4.9,17.64,NW,315,2.0,7.0,48,0.00,,,0.00,meteohub,2013-11-24 06:32:00,
2013-11-24 00:37:00,10.9,-4.9,17.62,West,270,5.0,7.0,48,0.00,,,0.00,meteohub,2013-11-24 06:37:00,
2013-11-24 00:42:00,10.8,-5.1,17.61,West,270,2.0,7.0,48,0.00,,,0.00,meteohub,2013-11-24 06:42:00,
2013-11-24 00:47:00,10.8,-5.1,17.62,WNW,293,4.0,7.0,48,0.00,,,0.00,meteohub,2013-11-24 06:47:00,
2013-11-24 00:52:00,10.6,-4.9,17.60,NW,315,2.0,7.0,49,0.00,,,0.00,meteohub,2013-11-24 06:52:00,
2013-11-24 00:57:00,10.6,-4.9,17.58,NW,315,8.0,9.0,49,0.00,,,0.00,meteohub,2013-11-24 06:57:00,
2013-11-24 01:02:00,10.6,-4.9,17.57,NW,315,6.0,9.0,49,0.00,,,0.00,meteohub,2013-11-24 07:02:00,
2013-11-24 01:07:00,10.4,-4.9,17.55,NW,315,6.0,8.0,49,0.00,,,0.00,meteohub,2013-11-24 07:07:00,
2013-11-24 01:12:00,10.6,-4.9,17.55,North,0,4.0,11.0,49,0.00,,,0.00,meteohub,2013-11-24 07:12:00,
2013-11-24 01:17:00,10.4,-4.5,17.56,NW,315,5.0,11.0,50,0.00,,,0.00,meteohub,2013-11-24 07:17:00,
2013-11-24 01:22:00,10.2,-6.5,17.55,NW,315,5.0,8.0,46,0.00,,,0.00,meteohub,2013-11-24 07:22:00,
2013-11-24 01:27:00,10.0,-6.7,17.57,NW,315,4.0,5.0,46,0.00,,,0.00,meteohub,2013-11-24 07:27:00,
2013-11-24 01:32:00,10.0,-6.7,17.57,West,270,2.0,5.0,46,0.00,,,0.00,meteohub,2013-11-24 07:32:00,
2013-11-24 01:37:00,10.0,-6.2,17.58,NW,315,2.0,5.0,47,0.00,,,0.00,meteohub,2013-11-24 07:37:00,
2013-11-24 01:42:00,9.9,-6.0,17.59,SW,225,3.0,4.0,48,0.00,,,0.00,meteohub,2013-11-24 07:42:00,
2013-11-24 01:47:00,9.9,-6.0,17.58,NW,315,3.0,4.0,48,0.00,,,0.00,meteohub,2013-11-24 07:47:00,
2013-11-24 01:52:00,9.9,-6.0,17.57,NW,315,4.0,4.0,48,0.00,,,0.00,meteohub,2013-11-24 07:52:00,
2013-11-24 01:57:00,9.7,-6.2,17.56,NW,315,4.0,4.0,48,0.00,,,0.00,meteohub,2013-11-24 07:57:00,
2013-11-24 02:02:00,9.5,-6.2,17.58,West,270,2.0,4.0,48,0.00,,,0.00,meteohub,2013-11-24 08:02:00,
2013-11-24 02:07:00,9.5,-6.2,17.59,West,270,2.0,4.0,48,0.00,,,0.00,meteohub,2013-11-24 08:07:00,
2013-11-24 02:12:00,9.3,-6.3,17.60,NW,315,2.0,4.0,48,0.00,,,0.00,meteohub,2013-11-24 08:12:00,
2013-11-24 02:17:00,9.3,-6.0,17.59,SW,225,2.0,2.0,49,0.00,,,0.00,meteohub,2013-11-24 08:17:00,
2013-11-24 02:22:00,9.1,-6.2,17.59,NW,315,3.0,3.0,49,0.00,,,0.00,meteohub,2013-11-24 08:22:00,
2013-11-24 02:27:00,9.3,-6.0,17.58,NW,315,4.0,4.0,49,0.00,,,0.00,meteohub,2013-11-24 08:27:00,
2013-11-24 02:32:00,9.5,-5.4,17.57,West,270,2.0,4.0,50,0.00,,,0.00,meteohub,2013-11-24 08:32:00,
2013-11-24 02:37:00,9.3,-5.6,17.57,NW,315,4.0,4.0,50,0.00,,,0.00,meteohub,2013-11-24 08:37:00,
2013-11-24 02:42:00,9.3,-5.6,17.55,NW,315,3.0,4.0,50,0.00,,,0.00,meteohub,2013-11-24 08:42:00,
2013-11-24 02:47:00,9.3,-5.6,17.54,WNW,293,2.0,4.0,50,0.00,,,0.00,meteohub,2013-11-24 08:47:00,
2013-11-24 02:52:00,9.5,-5.4,17.53,NW,315,2.0,4.0,50,0.00,,,0.00,meteohub,2013-11-24 08:52:00,
2013-11-24 02:57:00,9.5,-5.4,17.53,SW,225,2.0,4.0,50,0.00,,,0.00,meteohub,2013-11-24 08:57:00,
2013-11-24 03:02:00,9.3,-6.0,17.53,NW,315,1.0,4.0,49,0.00,,,0.00,meteohub,2013-11-24 09:02:00,
2013-11-24 03:07:00,9.1,-6.2,17.52,West,270,2.0,4.0,49,0.00,,,0.00,meteohub,2013-11-24 09:07:00,
2013-11-24 03:12:00,9.3,-6.0,17.53,NW,315,2.0,4.0,49,0.00,,,0.00,meteohub,2013-11-24 09:12:00,
2013-11-24 03:17:00,9.3,-5.6,17.51,NW,315,2.0,4.0,50,0.00,,,0.00,meteohub,2013-11-24 09:17:00,
2013-11-24 03:22:00,9.3,-5.6,17.52,NW,315,3.0,4.0,50,0.00,,,0.00,meteohub,2013-11-24 09:22:00,
2013-11-24 03:27:00,9.3,-5.6,17.53,NW,315,3.0,4.0,50,0.00,,,0.00,meteohub,2013-11-24 09:27:00,
2013-11-24 03:32:00,9.3,-5.6,17.51,SW,225,2.0,4.0,50,0.00,,,0.00,meteohub,2013-11-24 09:32:00,
2013-11-24 03:37:00,9.1,-5.8,17.52,NW,315,1.0,4.0,50,0.00,,,0.00,meteohub,2013-11-24 09:37:00,
2013-11-24 03:42:00,9.1,-5.8,17.50,SW,225,2.0,4.0,50,0.00,,,0.00,meteohub,2013-11-24 09:42:00,
2013-11-24 03:47:00,9.1,-5.8,17.51,West,270,2.0,3.0,50,0.00,,,0.00,meteohub,2013-11-24 09:47:00,
2013-11-24 03:52:00,9.1,-5.8,17.51,NW,315,2.0,3.0,50,0.00,,,0.00,meteohub,2013-11-24 09:52:00,
2013-11-24 03:57:00,9.0,-6.0,17.49,West,270,2.0,3.0,50,0.00,,,0.00,meteohub,2013-11-24 09:57:00,
2013-11-24 04:02:00,9.0,-6.0,17.49,SW,225,3.0,3.0,50,0.00,,,0.00,meteohub,2013-11-24 10:02:00,
2013-11-24 04:07:00,8.8,-6.0,17.49,South,180,3.0,3.0,50,0.00,,,0.00,meteohub,2013-11-24 10:07:00,
2013-11-24 04:12:00,8.8,-5.6,17.49,South,180,2.0,11.0,51,0.00,,,0.00,meteohub,2013-11-24 10:12:00,
2013-11-24 04:17:00,8.4,-5.6,17.49,West,270,4.0,11.0,52,0.00,,,0.00,meteohub,2013-11-24 10:17:00,
2013-11-24 04:22:00,8.2,-5.4,17.48,SW,225,2.0,4.0,53,0.00,,,0.00,meteohub,2013-11-24 10:22:00,
2013-11-24 04:27:00,8.2,-5.4,17.49,SW,225,2.0,4.0,53,0.00,,,0.00,meteohub,2013-11-24 10:27:00,
2013-11-24 04:32:00,8.2,-5.4,17.49,West,270,2.0,4.0,53,0.00,,,0.00,meteohub,2013-11-24 10:32:00,
2013-11-24 04:37:00,8.2,-4.9,17.51,NW,315,2.0,4.0,54,0.00,,,0.00,meteohub,2013-11-24 10:37:00,
2013-11-24 04:42:00,8.2,-4.9,17.51,West,270,4.0,5.0,54,0.00,,,0.00,meteohub,2013-11-24 10:42:00,
2013-11-24 04:47:00,8.2,-4.9,17.50,West,270,2.0,5.0,54,0.00,,,0.00,meteohub,2013-11-24 10:47:00,
2013-11-24 04:52:00,8.2,-4.5,17.49,South,180,2.0,5.0,55,0.00,,,0.00,meteohub,2013-11-24 10:52:00,
2013-11-24 04:57:00,8.2,-4.5,17.47,West,270,1.0,4.0,55,0.00,,,0.00,meteohub,2013-11-24 10:57:00,
2013-11-24 05:02:00,8.1,-4.7,17.46,South,180,1.0,4.0,55,0.00,,,0.00,meteohub,2013-11-24 11:02:00,
2013-11-24 05:07:00,7.7,-5.1,17.45,SW,225,1.0,2.0,55,0.00,,,0.00,meteohub,2013-11-24 11:07:00,
2013-11-24 05:12:00,7.5,-5.3,17.48,West,270,2.0,2.0,55,0.00,,,0.00,meteohub,2013-11-24 11:12:00,
2013-11-24 05:17:00,7.5,-4.9,17.49,SW,225,2.0,2.0,56,0.00,,,0.00,meteohub,2013-11-24 11:17:00,
2013-11-24 05:22:00,7.5,-4.9,17.49,SW,225,2.0,2.0,56,0.00,,,0.00,meteohub,2013-11-24 11:22:00,
2013-11-24 05:27:00,7.3,-4.7,17.49,SW,225,2.0,2.0,57,0.00,,,0.00,meteohub,2013-11-24 11:27:00,
2013-11-24 05:32:00,7.3,-4.7,17.49,West,270,0.0,2.0,57,0.00,,,0.00,meteohub,2013-11-24 11:32:00,
2013-11-24 05:37:00,7.2,-4.9,17.49,SW,225,1.0,2.0,57,0.00,,,0.00,meteohub,2013-11-24 11:37:00,
2013-11-24 05:42:00,7.0,-5.1,17.49,West,270,1.0,2.0,57,0.00,,,0.00,meteohub,2013-11-24 11:42:00,
2013-11-24 05:47:00,6.8,-5.3,17.48,West,270,0.0,1.0,57,0.00,,,0.00,meteohub,2013-11-24 11:47:00,
2013-11-24 05:52:00,6.8,-5.3,17.50,SW,225,2.0,2.0,57,0.00,,,0.00,meteohub,2013-11-24 11:52:00,
2013-11-24 05:57:00,6.4,-5.3,17.51,SW,225,0.0,2.0,58,0.00,,,0.00,meteohub,2013-11-24 11:57:00,
2013-11-24 06:02:00,6.4,-5.3,17.53,West,270,1.0,2.0,58,0.00,,,0.00,meteohub,2013-11-24 12:02:00,
2013-11-24 06:07:00,6.4,-5.3,17.53,West,270,1.0,2.0,58,0.00,,,0.00,meteohub,2013-11-24 12:07:00,
2013-11-24 06:12:00,6.6,-4.7,17.52,West,270,1.0,2.0,59,0.00,,,0.00,meteohub,2013-11-24 12:12:00,
2013-11-24 06:17:00,7.0,-4.4,17.54,West,270,1.0,2.0,59,0.00,,,0.00,meteohub,2013-11-24 12:17:00,
2013-11-24 06:22:00,7.0,-4.4,17.52,SW,225,1.0,2.0,59,0.00,,,0.00,meteohub,2013-11-24 12:22:00,
2013-11-24 06:27:00,7.2,-4.2,17.52,SW,225,1.0,2.0,59,0.00,,,0.00,meteohub,2013-11-24 12:27:00,
2013-11-24 06:32:00,7.3,-4.0,17.51,NW,315,1.0,2.0,59,0.00,,,0.00,meteohub,2013-11-24 12:32:00,
2013-11-24 06:37:00,7.3,-4.0,17.52,NW,315,1.0,2.0,59,0.00,,,0.00,meteohub,2013-11-24 12:37:00,
2013-11-24 06:42:00,7.3,-4.0,17.53,SW,225,1.0,2.0,59,0.00,,,0.00,meteohub,2013-11-24 12:42:00,
2013-11-24 06:47:00,6.8,-4.5,17.54,SW,225,1.0,2.0,59,0.00,,,0.00,meteohub,2013-11-24 12:47:00,
2013-11-24 06:52:00,6.6,-4.4,17.55,SW,225,0.0,2.0,60,0.00,,,0.00,meteohub,2013-11-24 12:52:00,
2013-11-24 06:57:00,6.6,-4.4,17.53,SW,225,1.0,1.0,60,0.00,,,0.00,meteohub,2013-11-24 12:57:00,
2013-11-24 07:02:00,6.6,-4.0,17.51,NW,315,1.0,2.0,61,0.00,,,0.00,meteohub,2013-11-24 13:02:00,
2013-11-24 07:07:00,6.8,-4.2,17.52,NW,315,2.0,2.0,60,0.00,,,0.00,meteohub,2013-11-24 13:07:00,
2013-11-24 07:12:00,7.3,-3.6,17.49,NW,315,1.0,13.0,60,0.00,,,0.00,meteohub,2013-11-24 13:12:00,
2013-11-24 07:17:00,7.7,-2.9,17.49,West,270,2.0,13.0,61,0.00,,,0.00,meteohub,2013-11-24 13:17:00,
2013-11-24 07:22:00,8.1,-2.6,17.49,West,270,3.0,3.0,61,0.00,,,0.00,meteohub,2013-11-24 13:22:00,
2013-11-24 07:27:00,8.6,-2.4,17.49,NW,315,3.0,5.0,60,0.00,,,0.00,meteohub,2013-11-24 13:27:00,
2013-11-24 07:32:00,9.0,-2.0,17.50,NW,315,2.0,5.0,60,0.00,,,0.00,meteohub,2013-11-24 13:32:00,
2013-11-24 07:37:00,9.3,-2.0,17.51,NW,315,5.0,5.0,59,0.00,,,0.00,meteohub,2013-11-24 13:37:00,
2013-11-24 07:42:00,9.7,-2.2,17.53,West,270,4.0,5.0,58,0.00,,,0.00,meteohub,2013-11-24 13:42:00,
2013-11-24 07:47:00,9.9,-2.0,17.55,NW,315,2.0,5.0,58,0.00,,,0.00,meteohub,2013-11-24 13:47:00,
2013-11-24 07:52:00,10.4,-0.8,17.53,West,270,3.0,5.0,60,0.00,,,0.00,meteohub,2013-11-24 13:52:00,
2013-11-24 07:57:00,10.9,-0.9,17.52,NW,315,2.0,4.0,58,0.00,,,0.00,meteohub,2013-11-24 13:57:00,
2013-11-24 08:02:00,11.5,-0.8,17.53,NW,315,4.0,4.0,57,0.00,,,0.00,meteohub,2013-11-24 14:02:00,
2013-11-24 08:07:00,12.0,-0.6,17.55,West,270,2.0,4.0,56,0.00,,,0.00,meteohub,2013-11-24 14:07:00,
2013-11-24 08:12:00,12.9,-0.9,17.54,West,270,4.0,5.0,53,0.00,,,0.00,meteohub,2013-11-24 14:12:00,
2013-11-24 08:17:00,12.9,-1.5,17.54,West,270,4.0,5.0,52,0.00,,,0.00,meteohub,2013-11-24 14:17:00,
2013-11-24 08:22:00,12.6,-2.2,17.57,NW,315,4.0,5.0,51,0.00,,,0.00,meteohub,2013-11-24 14:22:00,
2013-11-24 08:27:00,13.6,-1.1,17.57,NW,315,4.0,5.0,51,0.00,,,0.00,meteohub,2013-11-24 14:27:00,
2013-11-24 08:32:00,13.5,-1.7,17.57,SW,225,3.0,5.0,50,0.00,,,0.00,meteohub,2013-11-24 14:32:00,
2013-11-24 08:37:00,14.2,-2.4,17.57,SW,225,5.0,6.0,47,0.00,,,0.00,meteohub,2013-11-24 14:37:00,
2013-11-24 08:42:00,14.5,-2.0,17.56,South,180,4.0,6.0,47,0.00,,,0.00,meteohub,2013-11-24 14:42:00,
2013-11-24 08:47:00,13.5,-2.2,17.56,NW,315,3.0,5.0,49,0.00,,,0.00,meteohub,2013-11-24 14:47:00,
2013-11-24 08:52:00,14.2,-1.5,17.56,SW,225,4.0,6.0,49,0.00,,,0.00,meteohub,2013-11-24 14:52:00,
2013-11-24 08:57:00,15.4,0.1,17.54,West,270,3.0,6.0,50,0.00,,,0.00,meteohub,2013-11-24 14:57:00,
2013-11-24 09:02:00,16.0,-0.2,17.55,West,270,2.0,6.0,48,0.00,,,0.00,meteohub,2013-11-24 15:02:00,
2013-11-24 09:07:00,16.5,-0.6,17.55,West,270,4.0,6.0,46,0.00,,,0.00,meteohub,2013-11-24 15:07:00,
2013-11-24 09:12:00,16.5,-1.7,17.54,NW,315,4.0,6.0,44,0.00,,,0.00,meteohub,2013-11-24 15:12:00,
2013-11-24 09:17:00,15.6,-2.4,17.56,West,270,3.0,6.0,44,0.00,,,0.00,meteohub,2013-11-24 15:17:00,
2013-11-24 09:22:00,15.4,-2.6,17.55,NW,315,4.0,6.0,44,0.00,,,0.00,meteohub,2013-11-24 15:22:00,
2013-11-24 09:27:00,16.2,-2.4,17.57,West,270,6.0,6.0,43,0.00,,,0.00,meteohub,2013-11-24 15:27:00,
2013-11-24 09:32:00,15.8,-3.3,17.57,NW,315,7.0,7.0,42,0.00,,,0.00,meteohub,2013-11-24 15:32:00,
2013-11-24 09:37:00,15.4,-3.1,17.57,SW,225,8.0,8.0,43,0.00,,,0.00,meteohub,2013-11-24 15:37:00,
2013-11-24 09:42:00,16.2,-2.9,17.55,NW,315,5.0,8.0,42,0.00,,,0.00,meteohub,2013-11-24 15:42:00,
2013-11-24 09:47:00,16.9,-2.2,17.53,West,270,6.0,8.0,42,0.00,,,0.00,meteohub,2013-11-24 15:47:00,
2013-11-24 09:52:00,17.4,-2.2,17.54,West,270,7.0,8.0,41,0.00,,,0.00,meteohub,2013-11-24 15:52:00,
2013-11-24 09:57:00,17.6,-3.1,17.53,NW,315,6.0,9.0,39,0.00,,,0.00,meteohub,2013-11-24 15:57:00,
2013-11-24 10:02:00,16.9,-3.8,17.53,WSW,248,7.0,9.0,39,0.00,,,0.00,meteohub,2013-11-24 16:02:00,
2013-11-24 10:07:00,17.1,-3.6,17.52,West,270,6.0,8.0,39,0.00,,,0.00,meteohub,2013-11-24 16:07:00,
2013-11-24 10:12:00,17.6,-3.6,17.51,NW,315,8.0,10.0,38,0.00,,,0.00,meteohub,2013-11-24 16:12:00,
2013-11-24 10:17:00,18.3,-3.6,17.51,SW,225,4.0,10.0,37,0.00,,,0.00,meteohub,2013-11-24 16:17:00,
2013-11-24 10:22:00,18.9,-4.9,17.53,West,270,8.0,11.0,34,0.00,,,0.00,meteohub,2013-11-24 16:22:00,
2013-11-24 10:27:00,19.0,-5.3,17.53,NW,315,4.0,11.0,33,0.00,,,0.00,meteohub,2013-11-24 16:27:00,
2013-11-24 10:32:00,19.9,-2.2,17.52,NW,315,8.0,11.0,37,0.00,,,0.00,meteohub,2013-11-24 16:32:00,
2013-11-24 10:37:00,19.4,-3.8,17.48,West,270,8.0,9.0,35,0.00,,,0.00,meteohub,2013-11-24 16:37:00,
2013-11-24 10:42:00,19.0,-7.2,17.45,South,180,7.0,11.0,30,0.00,,,0.00,meteohub,2013-11-24 16:42:00,
2013-11-24 10:47:00,19.4,-5.1,17.43,NW,315,6.0,11.0,33,0.00,,,0.00,meteohub,2013-11-24 16:47:00,
2013-11-24 10:52:00,20.5,-2.9,17.41,SW,225,5.0,11.0,35,0.00,,,0.00,meteohub,2013-11-24 16:52:00,
2013-11-24 10:57:00,21.4,-3.3,17.39,West,270,6.0,8.0,33,0.00,,,0.00,meteohub,2013-11-24 16:57:00,
2013-11-24 11:02:00,21.0,-5.6,17.38,SW,225,10.0,10.0,30,0.00,,,0.00,meteohub,2013-11-24 17:02:00,
2013-11-24 11:07:00,20.7,-7.2,17.35,WSW,248,9.0,13.0,28,0.00,,,0.00,meteohub,2013-11-24 17:07:00,
2013-11-24 11:12:00,20.8,-7.1,17.31,WNW,293,8.0,13.0,28,0.00,,,0.00,meteohub,2013-11-24 17:12:00,
2013-11-24 11:17:00,21.9,-6.9,17.33,West,270,7.0,13.0,27,0.00,,,0.00,meteohub,2013-11-24 17:17:00,
2013-11-24 11:22:00,21.9,-7.8,17.29,NW,315,4.0,9.0,26,0.00,,,0.00,meteohub,2013-11-24 17:22:00,
2013-11-24 11:27:00,22.5,-7.2,17.26,SW,225,4.0,9.0,26,0.00,,,0.00,meteohub,2013-11-24 17:27:00,
2013-11-24 11:32:00,22.6,-8.0,17.23,West,270,4.0,9.0,25,0.00,,,0.00,meteohub,2013-11-24 17:32:00,
2013-11-24 11:37:00,22.6,-7.1,17.19,SW,225,8.0,10.0,26,0.00,,,0.00,meteohub,2013-11-24 17:37:00,
2013-11-24 11:42:00,22.6,-7.1,17.18,SW,225,6.0,10.0,26,0.00,,,0.00,meteohub,2013-11-24 17:42:00,
2013-11-24 11:47:00,23.0,-6.9,17.16,South,180,6.0,9.0,26,0.00,,,0.00,meteohub,2013-11-24 17:47:00,
2013-11-24 11:52:00,23.9,-6.0,17.17,West,270,6.0,10.0,26,0.00,,,0.00,meteohub,2013-11-24 17:52:00,
2013-11-24 11:57:00,24.1,-7.4,17.17,SW,225,3.0,10.0,24,0.00,,,0.00,meteohub,2013-11-24 17:57:00,
2013-11-24 12:02:00,23.9,-7.6,17.18,SW,225,6.0,10.0,24,0.00,,,0.00,meteohub,2013-11-24 18:02:00,
2013-11-24 12:07:00,24.3,-7.4,17.17,West,270,8.0,9.0,24,0.00,,,0.00,meteohub,2013-11-24 18:07:00,
2013-11-24 12:12:00,24.3,-8.1,17.14,SW,225,4.0,9.0,23,0.00,,,0.00,meteohub,2013-11-24 18:12:00,
2013-11-24 12:17:00,24.3,-8.1,17.12,NW,315,3.0,11.0,23,0.00,,,0.00,meteohub,2013-11-24 18:17:00,
2013-11-24 12:22:00,25.2,-8.3,17.10,West,270,9.0,12.0,22,0.00,,,0.00,meteohub,2013-11-24 18:22:00,
2013-11-24 12:27:00,25.0,-9.4,17.07,West,270,4.0,12.0,21,0.00,,,0.00,meteohub,2013-11-24 18:27:00,
2013-11-24 12:32:00,24.6,-8.9,17.05,West,270,8.0,11.0,22,0.00,,,0.00,meteohub,2013-11-24 18:32:00,
2013-11-24 12:37:00,25.3,-9.2,17.05,NW,315,7.0,11.0,21,0.00,,,0.00,meteohub,2013-11-24 18:37:00,
2013-11-24 12:42:00,25.2,-10.3,17.03,NW,315,8.0,9.0,20,0.00,,,0.00,meteohub,2013-11-24 18:42:00,
2013-11-24 12:47:00,25.0,-10.5,17.00,SW,225,4.0,11.0,20,0.00,,,0.00,meteohub,2013-11-24 18:47:00,
2013-11-24 12:52:00,25.9,-9.8,17.00,NW,315,7.0,11.0,20,0.00,,,0.00,meteohub,2013-11-24 18:52:00,
2013-11-24 12:57:00,26.2,-9.4,16.99,West,270,4.0,11.0,20,0.00,,,0.00,meteohub,2013-11-24 18:57:00,
2013-11-24 13:02:00,27.3,-9.6,16.97,SW,225,5.0,9.0,19,0.00,,,0.00,meteohub,2013-11-24 19:02:00,
2013-11-24 13:07:00,26.6,-11.2,16.97,West,270,5.0,11.0,18,0.00,,,0.00,meteohub,2013-11-24 19:07:00,
2013-11-24 13:12:00,26.1,-10.7,16.96,SW,225,9.0,11.0,19,0.00,,,0.00,meteohub,2013-11-24 19:12:00,
2013-11-24 13:17:00,26.4,-10.3,16.97,NW,315,8.0,11.0,19,0.00,,,0.00,meteohub,2013-11-24 19:17:00,
2013-11-24 13:22:00,26.1,-10.7,16.95,SW,225,5.0,10.0,19,0.00,,,0.00,meteohub,2013-11-24 19:22:00,
2013-11-24 13:27:00,27.3,-10.7,16.92,NW,315,4.0,10.0,18,0.00,,,0.00,meteohub,2013-11-24 19:27:00,
2013-11-24 13:32:00,27.7,-10.3,16.90,West,270,4.0,8.0,18,0.00,,,0.00,meteohub,2013-11-24 19:32:00,
2013-11-24 13:37:00,28.4,-5.6,16.86,SW,225,8.0,8.0,22,0.00,,,0.00,meteohub,2013-11-24 19:37:00,
2013-11-24 13:42:00,27.7,-10.3,16.89,NNE,23,7.0,9.0,18,0.00,,,0.00,meteohub,2013-11-24 19:42:00,
2013-11-24 13:47:00,28.0,-9.9,16.86,West,270,9.0,9.0,18,0.00,,,0.00,meteohub,2013-11-24 19:47:00,
2013-11-24 13:52:00,27.7,-10.3,16.86,North,0,8.0,9.0,18,0.00,,,0.00,meteohub,2013-11-24 19:52:00,
2013-11-24 13:57:00,27.3,-10.7,16.84,West,270,6.0,13.0,18,0.00,,,0.00,meteohub,2013-11-24 19:57:00,
2013-11-24 14:02:00,27.5,-10.5,16.84,SW,225,8.0,13.0,18,0.00,,,0.00,meteohub,2013-11-24 20:02:00,
2013-11-24 14:07:00,27.1,-10.8,16.84,SW,225,11.0,13.0,18,0.00,,,0.00,meteohub,2013-11-24 20:07:00,
2013-11-24 14:12:00,27.0,-10.8,16.82,South,180,7.0,11.0,18,0.00,,,0.00,meteohub,2013-11-24 20:12:00,
2013-11-24 14:17:00,26.6,-11.2,16.82,SW,225,8.0,11.0,18,0.00,,,0.00,meteohub,2013-11-24 20:17:00,
2013-11-24 14:22:00,26.6,-11.2,16.83,West,270,6.0,14.0,18,0.00,,,0.00,meteohub,2013-11-24 20:22:00,
2013-11-24 14:27:00,26.8,-11.0,16.81,West,270,5.0,14.0,18,0.00,,,0.00,meteohub,2013-11-24 20:27:00,
2013-11-24 14:32:00,27.0,-10.8,16.79,South,180,8.0,14.0,18,0.00,,,0.00,meteohub,2013-11-24 20:32:00,
2013-11-24 14:37:00,26.6,-11.2,16.79,SW,225,11.0,14.0,18,0.00,,,0.00,meteohub,2013-11-24 20:37:00,
2013-11-24 14:42:00,26.1,-9.6,16.77,South,180,13.0,14.0,20,0.00,,,0.00,meteohub,2013-11-24 20:42:00,
2013-11-24 14:47:00,25.2,-10.3,16.75,South,180,10.0,14.0,20,0.00,,,0.00,meteohub,2013-11-24 20:47:00,
2013-11-24 14:52:00,26.1,-9.6,16.75,West,270,5.0,13.0,20,0.00,,,0.00,meteohub,2013-11-24 20:52:00,
2013-11-24 14:57:00,26.6,-10.1,16.76,West,270,8.0,13.0,19,0.00,,,0.00,meteohub,2013-11-24 20:57:00,
2013-11-24 15:02:00,26.4,-9.2,16.75,South,180,8.0,11.0,20,0.00,,,0.00,meteohub,2013-11-24 21:02:00,
2013-11-24 15:07:00,27.1,-9.8,16.74,SW,225,5.0,11.0,19,0.00,,,0.00,meteohub,2013-11-24 21:07:00,
2013-11-24 15:12:00,26.8,-9.9,16.72,SW,225,10.0,11.0,19,0.00,,,0.00,meteohub,2013-11-24 21:12:00,
2013-11-24 15:17:00,25.9,-9.8,16.71,SW,225,6.0,13.0,20,0.00,,,0.00,meteohub,2013-11-24 21:17:00,
2013-11-24 15:22:00,25.0,-10.5,16.71,SW,225,10.0,13.0,20,0.00,,,0.00,meteohub,2013-11-24 21:22:00,
2013-11-24 15:27:00,24.6,-9.8,16.71,SW,225,12.0,13.0,21,0.00,,,0.00,meteohub,2013-11-24 21:27:00,
2013-11-24 15:32:00,24.8,-9.6,16.71,West,270,8.0,12.0,21,0.00,,,0.00,meteohub,2013-11-24 21:32:00,
2013-11-24 15:37:00,25.0,-9.4,16.71,WSW,248,7.0,12.0,21,0.00,,,0.00,meteohub,2013-11-24 21:37:00,
2013-11-24 15:42:00,24.6,-8.9,16.71,NW,315,7.0,12.0,22,0.00,,,0.00,meteohub,2013-11-24 21:42:00,
2013-11-24 15:47:00,24.6,-8.9,16.69,WSW,248,4.0,12.0,22,0.00,,,0.00,meteohub,2013-11-24 21:47:00,
2013-11-24 15:52:00,24.3,-8.1,16.70,SW,225,4.0,12.0,23,0.00,,,0.00,meteohub,2013-11-24 21:52:00,
2013-11-24 15:57:00,23.9,-8.5,16.70,NW,315,7.0,9.0,23,0.00,,,0.00,meteohub,2013-11-24 21:57:00,
2013-11-24 16:02:00,23.7,-8.7,16.67,SW,225,6.0,9.0,23,0.00,,,0.00,meteohub,2013-11-24 22:02:00,
2013-11-24 16:07:00,23.5,-8.0,16.67,South,180,6.0,11.0,24,0.00,,,0.00,meteohub,2013-11-24 22:07:00,
2013-11-24 16:12:00,23.5,-7.1,16.67,SE,135,7.0,11.0,25,0.00,,,0.00,meteohub,2013-11-24 22:12:00,
2013-11-24 16:17:00,23.4,-7.2,16.65,South,180,9.0,11.0,25,0.00,,,0.00,meteohub,2013-11-24 22:17:00,
2013-11-24 16:22:00,23.4,-7.2,16.64,SW,225,7.0,11.0,25,0.00,,,0.00,meteohub,2013-11-24 22:22:00,
2013-11-24 16:27:00,23.2,-7.4,16.64,SW,225,5.0,11.0,25,0.00,,,0.00,meteohub,2013-11-24 22:27:00,
2013-11-24 16:32:00,23.0,-6.9,16.62,SW,225,4.0,11.0,26,0.00,,,0.00,meteohub,2013-11-24 22:32:00,
2013-11-24 16:37:00,22.8,-6.2,16.61,SW,225,7.0,9.0,27,0.00,,,0.00,meteohub,2013-11-24 22:37:00,
2013-11-24 16:42:00,22.8,-6.2,16.60,SW,225,7.0,9.0,27,0.00,,,0.00,meteohub,2013-11-24 22:42:00,
2013-11-24 16:47:00,22.8,-6.2,16.59,West,270,2.0,9.0,27,0.00,,,0.00,meteohub,2013-11-24 22:47:00,
2013-11-24 16:52:00,22.6,-6.3,16.60,South,180,5.0,9.0,27,0.00,,,0.00,meteohub,2013-11-24 22:52:00,
2013-11-24 16:57:00,22.6,-5.6,16.58,SW,225,4.0,8.0,28,0.00,,,0.00,meteohub,2013-11-24 22:57:00,
2013-11-24 17:02:00,22.5,-5.8,16.56,SW,225,4.0,8.0,28,0.00,,,0.00,meteohub,2013-11-24 23:02:00,
2013-11-24 17:07:00,22.5,-5.8,16.56,SW,225,6.0,8.0,28,0.00,,,0.00,meteohub,2013-11-24 23:07:00,
2013-11-24 17:12:00,22.5,-5.1,16.55,SW,225,5.0,8.0,29,0.00,,,0.00,meteohub,2013-11-24 23:12:00,
2013-11-24 17:17:00,22.3,-5.1,16.55,South,180,5.0,8.0,29,0.00,,,0.00,meteohub,2013-11-24 23:17:00,
2013-11-24 17:22:00,22.3,-5.1,16.55,South,180,5.0,8.0,29,0.00,,,0.00,meteohub,2013-11-24 23:22:00,
2013-11-24 17:27:00,22.1,-4.5,16.55,SW,225,6.0,8.0,30,0.00,,,0.00,meteohub,2013-11-24 23:27:00,
2013-11-24 17:32:00,22.1,-4.0,16.55,SW,225,7.0,10.0,31,0.00,,,0.00,meteohub,2013-11-24 23:32:00,
2013-11-24 17:37:00,22.1,-4.0,16.55,SW,225,10.0,10.0,31,0.00,,,0.00,meteohub,2013-11-24 23:37:00,
2013-11-24 17:42:00,21.9,-3.5,16.54,West,270,6.0,10.0,32,0.00,,,0.00,meteohub,2013-11-24 23:42:00,
2013-11-24 17:47:00,21.7,-2.9,16.53,SW,225,8.0,10.0,33,0.00,,,0.00,meteohub,2013-11-24 23:47:00,
2013-11-24 17:52:00,21.7,-2.9,16.53,SW,225,4.0,10.0,33,0.00,,,0.00,meteohub,2013-11-24 23:52:00,
2013-11-24 17:57:00,21.7,-2.4,16.51,West,270,7.0,8.0,34,0.00,,,0.00,meteohub,2013-11-24 23:57:00,
2013-11-24 18:02:00,21.6,-1.8,16.51,SW,225,6.0,11.0,35,0.00,,,0.00,meteohub,2013-11-25 00:02:00,
2013-11-24 18:07:00,21.6,-1.8,16.51,SW,225,9.0,11.0,35,0.00,,,0.00,meteohub,2013-11-25 00:07:00,
2013-11-24 18:12:00,21.7,-1.7,16.49,SW,225,6.0,11.0,35,0.00,,,0.00,meteohub,2013-11-25 00:12:00,
2013-11-24 18:17:00,21.6,-1.8,16.49,SW,225,8.0,14.0,35,0.00,,,0.00,meteohub,2013-11-25 00:17:00,
2013-11-24 18:22:00,21.4,-2.0,16.47,SSW,203,11.0,14.0,35,0.00,,,0.00,meteohub,2013-11-25 00:22:00,
2013-11-24 18:27:00,21.6,-1.8,16.47,West,270,6.0,11.0,35,0.00,,,0.00,meteohub,2013-11-25 00:27:00,
2013-11-24 18:32:00,21.4,-2.0,16.46,SW,225,6.0,11.0,35,0.00,,,0.00,meteohub,2013-11-25 00:32:00,
2013-11-24 18:37:00,21.6,-1.8,16.43,South,180,13.0,13.0,35,0.00,,,0.00,meteohub,2013-11-25 00:37:00,
2013-11-24 18:42:00,21.6,-1.8,16.41,SSW,203,9.0,13.0,35,0.00,,,0.00,meteohub,2013-11-25 00:42:00,
2013-11-24 18:47:00,21.6,-1.8,16.40,South,180,6.0,13.0,35,0.00,,,0.00,meteohub,2013-11-25 00:47:00,
2013-11-24 18:52:00,21.2,-1.7,16.40,SW,225,8.0,13.0,36,0.00,,,0.00,meteohub,2013-11-25 00:52:00,
2013-11-24 18:57:00,21.4,-1.5,16.38,West,270,13.0,13.0,36,0.00,,,0.00,meteohub,2013-11-25 00:57:00,
2013-11-24 19:02:00,21.6,-1.3,16.38,SW,225,7.0,13.0,36,0.00,,,0.00,meteohub,2013-11-25 01:02:00,
2013-11-24 19:07:00,21.6,-1.3,16.37,South,180,9.0,13.0,36,0.00,,,0.00,meteohub,2013-11-25 01:07:00,
2013-11-24 19:12:00,21.4,-1.5,16.35,West,270,8.0,13.0,36,0.00,,,0.00,meteohub,2013-11-25 01:12:00,
2013-11-24 19:17:00,21.4,-1.5,16.34,SSW,203,8.0,11.0,36,0.00,,,0.00,meteohub,2013-11-25 01:17:00,
2013-11-24 19:22:00,21.4,-1.5,16.33,SW,225,4.0,11.0,36,0.00,,,0.00,meteohub,2013-11-25 01:22:00,
2013-11-24 19:27:00,21.4,-1.5,16.32,SW,225,11.0,11.0,36,0.00,,,0.00,meteohub,2013-11-25 01:27:00,
2013-11-24 19:32:00,21.6,-1.3,16.31,SW,225,7.0,13.0,36,0.00,,,0.00,meteohub,2013-11-25 01:32:00,
2013-11-24 19:37:00,21.4,-0.9,16.32,South,180,8.0,14.0,37,0.00,,,0.00,meteohub,2013-11-25 01:37:00,
2013-11-24 19:42:00,21.2,-0.4,16.31,SW,225,4.0,14.0,38,0.00,,,0.00,meteohub,2013-11-25 01:42:00,
2013-11-24 19:47:00,21.0,0.5,16.30,South,180,8.0,8.0,40,0.00,,,0.00,meteohub,2013-11-25 01:47:00,
2013-11-24 19:52:00,21.0,1.6,16.30,South,180,8.0,12.0,42,0.00,,,0.00,meteohub,2013-11-25 01:52:00,
2013-11-24 19:57:00,21.0,1.6,16.28,SW,225,8.0,12.0,42,0.00,,,0.00,meteohub,2013-11-25 01:57:00,
2013-11-24 20:02:00,21.0,1.6,16.27,SW,225,5.0,12.0,42,0.00,,,0.00,meteohub,2013-11-25 02:02:00,
2013-11-24 20:07:00,20.8,1.4,16.24,SSW,203,9.0,12.0,42,0.00,,,0.00,meteohub,2013-11-25 02:07:00,
2013-11-24 20:12:00,20.8,1.4,16.22,West,270,8.0,12.0,42,0.00,,,0.00,meteohub,2013-11-25 02:12:00,
2013-11-24 20:17:00,20.8,1.9,16.20,SW,225,7.0,11.0,43,0.00,,,0.00,meteohub,2013-11-25 02:17:00,
2013-11-24 20:22:00,20.8,1.9,16.20,West,270,7.0,11.0,43,0.00,,,0.00,meteohub,2013-11-25 02:22:00,
2013-11-24 20:27:00,21.0,1.9,16.16,NW,315,11.0,11.0,43,0.00,,,0.00,meteohub,2013-11-25 02:27:00,
2013-11-24 20:32:00,21.2,1.2,16.18,South,180,11.0,13.0,41,0.00,,,0.00,meteohub,2013-11-25 02:32:00,
2013-11-24 20:37:00,21.4,1.4,16.17,South,180,13.0,15.0,41,0.00,,,0.00,meteohub,2013-11-25 02:37:00,
2013-11-24 20:42:00,21.6,1.6,16.15,South,180,13.0,15.0,41,0.00,,,0.00,meteohub,2013-11-25 02:42:00,
2013-11-24 20:47:00,21.6,1.6,16.14,South,180,10.0,15.0,41,0.00,,,0.00,meteohub,2013-11-25 02:47:00,
2013-11-24 20:52:00,21.6,1.6,16.13,South,180,8.0,13.0,41,0.00,,,0.00,meteohub,2013-11-25 02:52:00,
2013-11-24 20:57:00,21.7,1.0,16.12,SW,225,11.0,13.0,40,0.00,,,0.00,meteohub,2013-11-25 02:57:00,
2013-11-24 21:02:00,21.7,0.5,16.09,South,180,15.0,16.0,39,0.00,,,0.00,meteohub,2013-11-25 03:02:00,
2013-11-24 21:07:00,21.9,0.1,16.06,SW,225,8.0,16.0,38,0.00,,,0.00,meteohub,2013-11-25 03:07:00,
2013-11-24 21:12:00,21.9,-0.4,16.04,South,180,8.0,16.0,37,0.00,,,0.00,meteohub,2013-11-25 03:12:00,
2013-11-24 21:17:00,21.9,-0.9,16.03,SW,225,11.0,15.0,36,0.00,,,0.00,meteohub,2013-11-25 03:17:00,
2013-11-24 21:22:00,21.9,-0.9,16.02,SSW,203,10.0,15.0,36,0.00,,,0.00,meteohub,2013-11-25 03:22:00,
2013-11-24 21:27:00,22.1,-0.8,16.02,SW,225,9.0,16.0,36,0.00,,,0.00,meteohub,2013-11-25 03:27:00,
2013-11-24 21:32:00,21.9,-1.5,16.02,SW,225,11.0,16.0,35,0.00,,,0.00,meteohub,2013-11-25 03:32:00,
2013-11-24 21:42:00,22.1,-1.3,16.01,SW,225,17.0,17.0,35,0.00,,,0.00,meteohub,2013-11-25 03:42:00,
2013-11-24 21:47:00,22.1,-1.3,16.00,SW,225,9.0,17.0,35,0.00,,,0.00,meteohub,2013-11-25 03:47:00,
2013-11-24 21:52:00,22.1,-2.0,16.00,South,180,8.0,17.0,34,0.00,,,0.00,meteohub,2013-11-25 03:52:00,
2013-11-24 21:57:00,22.1,-2.0,15.98,South,180,12.0,17.0,34,0.00,,,0.00,meteohub,2013-11-25 03:57:00,
2013-11-24 22:02:00,22.1,-2.0,15.94,South,180,8.0,14.0,34,0.00,,,0.00,meteohub,2013-11-25 04:02:00,
2013-11-24 22:07:00,22.1,-2.6,15.94,SW,225,13.0,14.0,33,0.00,,,0.00,meteohub,2013-11-25 04:07:00,
2013-11-24 22:12:00,22.3,-2.4,15.94,SW,225,11.0,17.0,33,0.00,,,0.00,meteohub,2013-11-25 04:12:00,
2013-11-24 22:17:00,22.3,-3.1,15.92,SW,225,15.0,17.0,32,0.00,,,0.00,meteohub,2013-11-25 04:17:00,
2013-11-24 22:22:00,22.3,-3.1,15.91,WSW,248,15.0,17.0,32,0.00,,,0.00,meteohub,2013-11-25 04:22:00,
2013-11-24 22:27:00,22.3,-3.1,15.88,West,270,14.0,16.0,32,0.00,,,0.00,meteohub,2013-11-25 04:27:00,
2013-11-24 22:32:00,22.3,-3.8,15.90,West,270,11.0,16.0,31,0.00,,,0.00,meteohub,2013-11-25 04:32:00,
2013-11-24 22:37:00,22.3,-3.8,15.90,WNW,293,10.0,16.0,31,0.00,,,0.00,meteohub,2013-11-25 04:37:00,
2013-11-24 22:42:00,22.3,-3.8,15.89,West,270,9.0,18.0,31,0.00,,,0.00,meteohub,2013-11-25 04:42:00,
2013-11-24 22:47:00,22.1,-3.3,15.89,SW,225,11.0,18.0,32,0.00,,,0.00,meteohub,2013-11-25 04:47:00,
2013-11-24 22:52:00,22.1,-3.3,15.86,NW,315,16.0,18.0,32,0.00,,,0.00,meteohub,2013-11-25 04:52:00,
2013-11-24 22:57:00,22.1,-3.3,15.85,West,270,17.0,18.0,32,0.00,,,0.00,meteohub,2013-11-25 04:57:00,
2013-11-24 23:02:00,22.1,-3.3,15.87,NW,315,8.0,17.0,32,0.00,,,0.00,meteohub,2013-11-25 05:02:00,
2013-11-24 23:07:00,21.9,-3.5,15.84,NW,315,10.0,17.0,32,0.00,,,0.00,meteohub,2013-11-25 05:07:00,
2013-11-24 23:12:00,21.9,-3.5,15.85,West,270,10.0,17.0,32,0.00,,,0.00,meteohub,2013-11-25 05:12:00,
2013-11-24 23:17:00,21.9,-3.5,15.85,South,180,11.0,17.0,32,0.00,,,0.00,meteohub,2013-11-25 05:17:00,
2013-11-24 23:22:00,21.9,-3.5,15.85,SW,225,12.0,14.0,32,0.00,,,0.00,meteohub,2013-11-25 05:22:00,
2013-11-24 23:27:00,21.9,-3.5,15.84,NW,315,5.0,21.0,32,0.00,,,0.00,meteohub,2013-11-25 05:27:00,
2013-11-24 23:32:00,21.7,-3.6,15.84,SW,225,12.0,21.0,32,0.00,,,0.00,meteohub,2013-11-25 05:32:00,
2013-11-24 23:37:00,21.7,-2.9,15.85,SW,225,5.0,21.0,33,0.00,,,0.00,meteohub,2013-11-25 05:37:00,
2013-11-24 23:42:00,21.6,-3.1,15.84,SW,225,7.0,16.0,33,0.00,,,0.00,meteohub,2013-11-25 05:42:00,
2013-11-24 23:47:00,21.6,-3.1,15.82,South,180,12.0,12.0,33,0.00,,,0.00,meteohub,2013-11-25 05:47:00,
2013-11-24 23:52:00,21.7,-2.9,15.83,SW,225,9.0,12.0,33,0.00,,,0.00,meteohub,2013-11-25 05:52:00,
2013-11-24 23:57:00,21.6,-2.6,15.83,NW,315,8.0,13.0,34,0.00,,,0.00,meteohub,2013-11-25 05:57:00,